{"data":{"norad_id":68614,"epoch":"2026-05-25T04:00:03.998880Z","epoch_age_seconds":57046,"freshness":"FRESH","line1":"1 68614U 26073N   26145.16671295 -.01949677  00000+0 -27425-1 0  9993","line2":"2 68614  97.2853 344.7010 0001440  87.6223 319.1800 15.59990429  5995","mean_motion":15.59990429,"eccentricity":0.000144,"inclination_deg":97.2853,"raan_deg":344.701,"arg_perigee_deg":87.6223,"mean_anomaly_deg":319.18,"bstar":-0.027425,"rev_number":599,"period_min":92.308258642528,"perigee_km":386.71047582624,"apogee_km":388.65903249144,"semimajor_km":6765.8217541588,"source":"CELESTRAK","updated_at":"2026-05-25T13:38:21.968930Z"}}